EW4896 Weather Reports


Display with metric or nautical units.
time (UTC)temp
F
wind
direction
speed
MPH
gust
MPH
rain 1hr
in
rain 24hr
in
rain mn
in
humidity
%
barometer
mb
20260507040051 58 116 2.0 3.0 0.00 0.15 0.00 92 1005.0
20260507034557 58 114 2.0 4.0 0.01 0.15 0.15 92 1004.8
20260507033054 58 111 2.0 3.0 0.01 0.15 0.15 92 1004.4
20260507031602 59 104 2.0 6.0 0.01 0.15 0.15 93 1004.4
20260507030053 59 105 1.0 6.0 0.01 0.15 0.15 93 1004.0
20260507024547 59 102 1.0 3.0 0.00 0.14 0.14 93 1003.8
20260507023049 59 107 1.0 4.0 0.00 0.14 0.14 93 1003.9
20260507021545 59 96 2.0 4.0 0.00 0.14 0.14 93 1003.9
20260507020048 59 108 1.0 6.0 0.00 0.14 0.14 93 1003.8
20260507014551 59 113 1.0 4.0 0.00 0.14 0.14 93 1003.8
20260507013045 59 126 1.0 4.0 0.00 0.14 0.14 93 1003.9
20260507011544 59 139 2.0 4.0 0.00 0.14 0.14 93 1003.9
20260507010044 59 102 2.0 6.0 0.00 0.14 0.14 93 1004.0
20260507004541 59 92 1.0 4.0 0.00 0.14 0.14 93 1004.0
20260507003043 59 109 1.0 4.0 0.00 0.14 0.14 93 1004.0
20260507001543 59 86 1.0 4.0 0.01 0.14 0.14 93 1003.9
20260507000041 59 109 1.0 4.0 0.03 0.14 0.14 93 1003.8
20260506234538 59 97 1.0 4.0 0.05 0.14 0.14 93 1003.6
20260506233042 59 84 1.0 6.0 0.05 0.14 0.14 93 1003.6
20260506231536 60 107 2.0 4.0 0.04 0.13 0.13 92 1003.4
20260506230034 60 99 2.0 9.0 0.02 0.10 0.10 92 1003.6
20260506224533 60 84 1.0 4.0 0.01 0.09 0.09 92 1003.8
20260506223035 60 86 1.0 4.0 0.01 0.09 0.09 92 1003.8
20260506221531 60 132 2.0 7.0 0.01 0.09 0.09 91 1003.8
20260506220030 60 104 1.0 7.0 0.01 0.08 0.08 91 1004.0
20260506214528 60 30 2.0 8.0 0.01 0.08 0.08 91 1004.0
20260506213027 60 105 1.0 4.0 0.02 0.08 0.08 91 1004.3
20260506211525 60 107 1.0 4.0 0.03 0.08 0.08 91 1004.5
20260506210027 60 103 2.0 7.0 0.03 0.07 0.07 90 1004.5
20260506204625 60 78 3.0 9.0 0.03 0.07 0.07 90 1004.5
20260506203022 61 96 1.0 6.0 0.03 0.06 0.06 90 1004.8
20260506201522 61 80 2.0 9.0 0.03 0.05 0.05 89 1004.7
20260506200020 62 92 1.0 12.0 0.03 0.04 0.04 89 1004.7
20260506194522 62 89 2.0 6.0 0.04 0.04 0.04 88 1004.7
20260506193019 63 71 1.0 6.0 0.03 0.03 0.03 88 1004.7
20260506191519 64 74 0.0 4.0 0.02 0.02 0.02 88 1004.6
20260506190015 65 71 1.0 7.0 0.01 0.01 0.01 83 1004.8
20260506184515 67 360 2.0 9.0 0.00 0.00 0.00 78 1004.9
20260506183013 68 81 1.0 9.0 0.00 0.00 0.00 75 1004.8
20260506181513 71 209 5.0 11.0 0.00 0.00 0.00 67 1004.9
20260506180012 72 226 5.0 11.0 0.00 0.00 0.00 61 1004.8
20260506174511 73 224 3.0 5.0 0.00 0.00 0.00 60 1004.8
20260506173012 73 329 3.0 10.0 0.00 0.00 0.00 60 1005.0
20260506171512 73 229 4.0 11.0 0.00 0.00 0.00 59 1005.0
20260506170008 74 207 2.0 9.0 0.00 0.00 0.00 60 1005.1
20260506164504 72 210 2.0 8.0 0.00 0.00 0.00 63 1005.2
20260506163003 71 175 2.0 8.0 0.00 0.00 0.00 64 1005.7
20260506161618 71 225 3.0 7.0 0.00 0.00 0.00 64 1005.9
20260506160058 71 252 4.0 9.0 0.00 0.00 0.00 64 1006.1
20260506154615 71 235 4.0 10.0 0.00 0.00 0.00 64 1006.3
20260506153107 71 248 3.0 15.0 0.00 0.00 0.00 64 1006.5
20260506151558 71 265 3.0 11.0 0.00 0.00 0.00 65 1006.8
20260506150052 71 223 3.0 8.0 0.00 0.00 0.00 66 1006.8
20260506144548 69 211 1.0 8.0 0.00 0.00 0.00 69 1007.0
20260506143101 69 257 3.0 7.0 0.00 0.00 0.00 69 1007.0
20260506141546 70 227 3.0 6.0 0.00 0.00 0.00 69 1006.9
20260506140045 69 249 2.0 8.0 0.00 0.00 0.00 71 1006.7
20260506134542 68 219 1.0 6.0 0.00 0.00 0.00 73 1006.9
20260506133039 67 286 1.0 9.0 0.00 0.00 0.00 75 1007.3
20260506131535 66 74 3.0 6.0 0.00 0.00 0.00 76 1007.6
20260506130034 66 72 2.0 15.0 0.00 0.00 0.00 76 1007.6
20260506124532 65 54 4.0 10.0 0.00 0.00 0.00 77 1007.5
20260506123033 64 62 1.0 4.0 0.00 0.00 0.00 79 1007.5
20260506121535 63 68 2.0 8.0 0.00 0.00 0.00 80 1007.7
20260506120028 63 34 3.0 10.0 0.00 0.00 0.00 80 1007.6
20260506114532 62 92 1.0 4.0 0.00 0.00 0.00 82 1007.9
20260506113024 62 61 1.0 3.0 0.00 0.00 0.00 82 1007.9
20260506111522 61 59 1.0 4.0 0.00 0.00 0.00 83 1008.1
20260506110021 61 74 1.0 3.0 0.00 0.00 0.00 84 1007.9
20260506104518 60 24 0.0 3.0 0.00 0.00 0.00 84 1008.0
20260506103015 60 69 0.0 4.0 0.00 0.00 0.00 84 1007.9
20260506101513 60 93 0.0 3.0 0.00 0.00 0.00 83 1008.0
20260506100012 60 82 0.0 4.0 0.00 0.00 0.00 83 1007.8
20260506094509 60 96 1.0 3.0 0.00 0.00 0.00 83 1007.7
20260506093008 60 74 0.0 4.0 0.00 0.00 0.00 82 1007.7
20260506091508 60 97 1.0 4.0 0.00 0.00 0.00 82 1007.8
20260506090005 60 97 1.0 3.0 0.00 0.00 0.00 81 1007.7
20260506084504 61 86 1.0 6.0 0.00 0.00 0.00 80 1007.9
20260506083001 61 80 1.0 3.0 0.00 0.00 0.00 80 1007.9
20260506081559 61 228 1.0 7.0 0.00 0.00 0.00 79 1007.9
20260506073058 63 237 1.0 4.0 0.00 0.00 0.00 77 1007.6
20260506071553 63 243 2.0 5.0 0.00 0.00 0.00 76 1007.4
20260506061548 64 244 2.0 5.0 0.00 0.00 0.00 72 1007.3
20260506044545 63 211 1.0 7.0 0.00 0.00 0.00 70 1007.7
20260506043038 63 234 2.0 4.0 0.00 0.00 0.00 70 1007.8
20260506041536 63 161 2.0 5.0 0.00 0.00 0.00 70 1007.8